GW5170 Weather Reports


Display with metric or nautical units.
time (UTC)temp
F
wind
direction
speed
MPH
gust
MPH
rain 1hr
in
rain 24hr
in
rain mn
in
humidity
%
barometer
mb
20260901114156 72 316 1.0 1.0 0.00 0.00 0.00 97 1015.5
20260901113655 72 344 0.0 0.0 0.00 0.00 0.00 97 1015.6
20260901113150 72 349 0.0 0.0 0.00 0.00 0.00 96 1015.4
20260901112644 72 351 1.0 1.0 0.00 0.00 0.00 96 1015.3
20260901112139 72 341 0.0 0.0 0.00 0.00 0.00 96 1015.5
20260901111638 72 341 0.0 0.0 0.00 0.00 0.00 96 1015.4
20260901111137 72 348 0.0 0.0 0.00 0.00 0.00 95 1015.3
20260901110633 73 353 0.0 0.0 0.00 0.00 0.00 95 1015.3
20260901110128 73 344 0.0 0.0 0.00 0.00 0.00 95 1015.3
20260901105624 73 344 0.0 0.0 0.00 0.00 0.00 95 1015.2
20260901105123 73 341 0.0 0.0 0.00 0.00 0.00 95 1015.1
20260901104619 73 339 0.0 0.0 0.00 0.00 0.00 96 1015.1
20260901104114 73 336 1.0 1.0 0.00 0.00 0.00 95 1015.3
20260901103609 73 333 0.0 0.0 0.00 0.00 0.00 96 1015.1
20260901103104 73 347 0.0 0.0 0.00 0.00 0.00 96 1015.0
20260901102559 74 347 0.0 1.0 0.00 0.00 0.00 96 1014.9
20260901102054 73 326 1.0 1.0 0.00 0.00 0.00 96 1015.0
20260901101549 73 334 0.0 0.0 0.00 0.00 0.00 96 1014.9
20260901101048 73 334 0.0 0.0 0.00 0.00 0.00 96 1014.7
20260901100543 73 339 0.0 0.0 0.00 0.00 0.00 96 1014.7
20260901100043 73 338 0.0 0.0 0.00 0.00 0.00 96 1014.8
20260901095541 73 340 0.0 0.0 0.00 0.00 0.00 96 1014.8
20260901095039 73 340 0.0 0.0 0.00 0.00 0.00 96 1014.8
20260901094534 73 353 1.0 1.0 0.00 0.00 0.00 97 1014.8
20260901094033 73 339 0.0 1.0 0.00 0.00 0.00 97 1014.9
20260901093528 72 339 0.0 0.0 0.00 0.00 0.00 97 1014.8
20260901093023 73 338 1.0 1.0 0.00 0.00 0.00 96 1014.7
20260901092519 73 341 1.0 1.0 0.00 0.00 0.00 96 1014.8
20260901092015 73 350 1.0 1.0 0.00 0.00 0.00 96 1014.9
20260901091510 73 8 1.0 1.0 0.00 0.00 0.00 95 1014.8
20260901091009 74 349 0.0 0.0 0.00 0.00 0.00 95 1014.7
20260901090509 74 326 0.0 1.0 0.00 0.00 0.00 95 1014.8
20260901090005 74 326 1.0 1.0 0.00 0.00 0.00 95 1014.8
20260901085500 74 346 0.0 0.0 0.00 0.00 0.00 96 1014.8
20260901084956 74 349 0.0 0.0 0.00 0.00 0.00 95 1014.6
20260901084452 74 336 0.0 0.0 0.00 0.00 0.00 95 1014.6
20260901083948 74 339 1.0 1.0 0.00 0.00 0.00 95 1014.5
20260901083443 74 339 0.0 0.0 0.00 0.00 0.00 95 1014.6
20260901082941 74 337 1.0 1.0 0.00 0.00 0.00 95 1014.6
20260901082436 74 352 1.0 1.0 0.00 0.00 0.00 95 1014.7
20260901081931 74 352 0.0 0.0 0.00 0.00 0.00 95 1014.7
20260901081426 74 349 0.0 0.0 0.00 0.00 0.00 95 1014.7
20260901080921 75 349 0.0 0.0 0.00 0.00 0.00 94 1014.7
20260901080420 75 337 0.0 0.0 0.00 0.00 0.00 94 1014.7
20260901075916 75 326 1.0 1.0 0.00 0.00 0.00 94 1014.7
20260901075416 75 302 2.0 2.0 0.00 0.00 0.00 94 1014.9
20260901074915 75 336 0.0 0.0 0.00 0.00 0.00 94 1014.7
20260901074410 74 331 1.0 1.0 0.00 0.00 0.00 94 1014.8
20260901073906 75 345 0.0 0.0 0.00 0.00 0.00 94 1014.8
20260901073402 75 345 0.0 0.0 0.00 0.00 0.00 94 1014.8
20260901072857 75 345 0.0 0.0 0.00 0.00 0.00 94 1014.8
20260901072357 75 344 0.0 0.0 0.00 0.00 0.00 94 1014.8
20260901071852 75 345 0.0 1.0 0.00 0.00 0.00 94 1014.8
20260901071351 75 355 0.0 0.0 0.00 0.00 0.00 94 1014.7
20260901070850 75 355 0.0 0.0 0.00 0.00 0.00 93 1014.8
20260901070346 75 354 0.0 0.0 0.00 0.00 0.00 93 1014.7
20260901065844 75 355 0.0 0.0 0.00 0.00 0.00 93 1014.6
20260901065339 75 357 0.0 0.0 0.00 0.00 0.00 94 1014.7
20260901064835 75 338 0.0 0.0 0.00 0.00 0.00 94 1014.7
20260901064331 75 338 0.0 0.0 0.00 0.00 0.00 94 1014.7
20260901063829 75 345 0.0 0.0 0.00 0.00 0.00 93 1014.9
20260901063325 76 345 0.0 0.0 0.00 0.00 0.00 92 1015.1
20260901062821 76 345 0.0 0.0 0.00 0.00 0.00 91 1014.9
20260901062317 77 337 0.0 0.0 0.00 0.00 0.00 91 1014.8
20260901061812 77 338 0.0 0.0 0.00 0.00 0.00 91 1014.8
20260901061312 76 345 1.0 1.0 0.00 0.00 0.00 91 1015.0
20260901060808 76 349 0.0 0.0 0.00 0.00 0.00 92 1014.9
20260901060303 77 346 0.0 0.0 0.00 0.00 0.00 91 1014.8
20260901055758 77 336 0.0 0.0 0.00 0.00 0.00 91 1014.9
20260901055254 77 341 0.0 0.0 0.00 0.00 0.00 90 1014.9
20260901054751 77 334 0.0 0.0 0.00 0.00 0.00 91 1014.9
20260901054247 77 335 0.0 1.0 0.00 0.00 0.00 91 1014.9
20260901053743 77 333 0.0 1.0 0.00 0.00 0.00 91 1014.8
20260901053243 77 339 0.0 0.0 0.00 0.00 0.00 91 1014.8
20260901052739 77 348 0.0 0.0 0.00 0.00 0.00 90 1014.6
20260901052234 77 341 0.0 0.0 0.00 0.00 0.00 90 1014.6
20260901051733 77 341 1.0 1.0 0.00 0.00 0.00 91 1014.3
20260901051228 76 337 0.0 1.0 0.00 0.00 0.00 93 1014.5
20260901050724 76 351 0.0 0.0 0.00 0.00 0.00 93 1014.6
20260901050219 76 351 0.0 0.0 0.00 0.00 0.00 92 1014.4
20260901045714 77 351 0.0 0.0 0.00 0.00 0.00 92 1014.5
20260901045209 77 347 0.0 0.0 0.00 0.00 0.00 91 1014.5
20260901044704 78 340 1.0 1.0 0.00 0.00 0.00 90 1014.5
20260901044200 78 345 0.0 0.0 0.00 0.00 0.00 88 1014.6
20260901043655 78 333 0.0 0.0 0.00 0.00 0.00 87 1014.5
20260901043151 79 338 0.0 0.0 0.00 0.00 0.00 87 1014.4
20260901042650 78 303 1.0 1.0 0.00 0.00 0.00 87 1014.3
20260901042145 78 330 1.0 1.0 0.00 0.00 0.00 87 1014.2
20260901041641 79 340 0.0 0.0 0.00 0.00 0.00 87 1014.3
20260901041136 79 334 2.0 3.0 0.00 0.00 0.00 87 1014.1
20260901040636 79 289 2.0 3.0 0.00 0.00 0.00 87 1014.3
20260901040135 79 328 2.0 2.0 0.00 0.00 0.00 86 1014.3
20260901035633 79 265 2.0 2.0 0.00 0.00 0.00 86 1014.3
20260901035132 79 284 2.0 3.0 0.00 0.00 0.00 86 1014.4
20260901034627 79 337 0.0 1.0 0.00 0.00 0.00 86 1014.6
20260901034126 80 353 0.0 1.0 0.00 0.00 0.00 86 1014.5
20260901033621 80 277 2.0 2.0 0.00 0.00 0.00 86 1014.3
20260901033120 80 328 1.0 1.0 0.00 0.00 0.00 86 1014.4
20260901032619 79 314 2.0 2.0 0.00 0.00 0.00 86 1014.7
20260901032114 79 341 0.0 0.0 0.00 0.00 0.00 89 1014.6
20260901031610 79 325 1.0 1.0 0.00 0.00 0.00 89 1014.7
20260901031106 79 328 0.0 1.0 0.00 0.00 0.00 90 1014.8
20260901030605 79 4 0.0 1.0 0.00 0.00 0.00 90 1014.5
20260901030100 78 349 0.0 0.0 0.00 0.00 0.00 90 1014.5
20260901025559 79 349 1.0 1.0 0.00 0.00 0.00 90 1014.8
20260901025054 79 349 0.0 0.0 0.00 0.00 0.00 89 1014.6
20260901024549 79 348 0.0 0.0 0.00 0.00 0.00 89 1014.5
20260901024047 79 343 0.0 0.0 0.00 0.00 0.00 89 1014.6
20260901023546 79 343 0.0 0.0 0.00 0.00 0.00 89 1014.5
20260901023042 79 343 0.0 0.0 0.00 0.00 0.00 88 1014.6
20260901022537 80 343 0.0 1.0 0.00 0.00 0.00 87 1014.5
20260901022032 81 343 0.0 0.0 0.00 0.00 0.00 85 1014.3
20260901021528 81 344 0.0 0.0 0.00 0.00 0.00 84 1014.4
20260901021023 82 345 0.0 0.0 0.00 0.00 0.00 83 1014.5
20260901020518 82 338 0.0 1.0 0.00 0.00 0.00 83 1014.5
20260901020014 82 332 0.0 0.0 0.00 0.00 0.00 83 1014.5
20260901015509 82 333 1.0 1.0 0.00 0.00 0.00 82 1014.5
20260901015008 82 345 0.0 0.0 0.00 0.00 0.00 82 1014.5
20260901014504 82 327 1.0 1.0 0.00 0.00 0.00 82 1014.3
20260901014000 82 341 0.0 0.0 0.00 0.00 0.00 81 1014.5
20260901013455 83 339 0.0 0.0 0.00 0.00 0.00 81 1014.2
20260901012951 83 311 1.0 2.0 0.00 0.00 0.00 80 1014.0
20260901012450 83 297 1.0 2.0 0.00 0.00 0.00 79 1014.0
20260901011946 84 320 1.0 1.0 0.00 0.00 0.00 78 1014.0
20260901011442 84 331 1.0 1.0 0.00 0.00 0.00 78 1013.7
20260901010940 84 292 1.0 2.0 0.00 0.00 0.00 78 1013.9
20260901010435 84 333 1.0 1.0 0.00 0.00 0.00 77 1014.0
20260901005934 84 337 1.0 2.0 0.00 0.00 0.00 77 1013.7
20260901005429 85 343 0.0 1.0 0.00 0.00 0.00 76 1014.0
20260901004924 85 332 0.0 0.0 0.00 0.00 0.00 76 1013.7
20260901004424 85 319 1.0 1.0 0.00 0.00 0.00 75 1014.1
20260901003919 85 293 2.0 3.0 0.00 0.00 0.00 75 1013.7
20260901003414 85 298 2.0 3.0 0.00 0.00 0.00 75 1013.9
20260901002912 86 334 2.0 2.0 0.00 0.00 0.00 74 1013.7
20260901002407 86 243 2.0 3.0 0.00 0.00 0.00 74 1013.6
20260901001907 86 237 3.0 4.0 0.00 0.00 0.00 73 1013.4
20260901001402 87 258 2.0 2.0 0.00 0.00 0.00 73 1013.5
20260901000857 87 299 0.0 1.0 0.00 0.00 0.00 72 1013.5
20260901000352 87 248 4.0 6.0 0.00 0.00 0.00 72 1013.4
20260831235851 87 333 2.0 2.0 0.00 0.00 0.00 71 1013.5
20260831235347 87 257 6.0 7.0 0.00 0.00 0.00 71 1013.7
20260831234842 87 249 3.0 4.0 0.00 0.00 0.00 70 1013.6
20260831234342 88 281 3.0 3.0 0.00 0.00 0.00 70 1013.5
20260831233837 88 253 4.0 4.0 0.00 0.00 0.00 69 1013.6
20260831233332 88 278 3.0 3.0 0.00 0.00 0.00 69 1013.4
20260831232828 88 265 4.0 7.0 0.00 0.00 0.00 69 1013.5
20260831232324 89 311 4.0 8.0 0.00 0.00 0.00 69 1013.4
20260831231820 89 253 4.0 4.0 0.00 0.00 0.00 68 1013.5
20260831231316 89 219 4.0 6.0 0.00 0.00 0.00 68 1013.4
20260831230811 88 295 4.0 4.0 0.00 0.00 0.00 70 1013.3
20260831230306 89 284 4.0 6.0 0.00 0.00 0.00 69 1013.3
20260831225805 89 313 3.0 4.0 0.00 0.00 0.00 68 1013.2
20260831225301 90 329 3.0 3.0 0.00 0.00 0.00 67 1013.2
20260831224756 90 278 3.0 4.0 0.00 0.00 0.00 65 1013.2
20260831224251 90 273 2.0 3.0 0.00 0.00 0.00 65 1012.9
20260831223746 90 191 6.0 7.0 0.00 0.00 0.00 65 1013.0
20260831223242 90 212 4.0 4.0 0.00 0.00 0.00 64 1013.2
20260831222738 91 279 4.0 4.0 0.00 0.00 0.00 64 1013.1
20260831222234 90 258 4.0 4.0 0.00 0.00 0.00 65 1012.9
20260831221729 91 264 2.0 3.0 0.00 0.00 0.00 65 1012.9
20260831221224 90 304 2.0 4.0 0.00 0.00 0.00 64 1012.8
20260831220719 90 203 5.0 6.0 0.00 0.00 0.00 65 1012.7
20260831220214 89 186 4.0 6.0 0.00 0.00 0.00 66 1012.9
20260831215709 90 236 4.0 6.0 0.00 0.00 0.00 65 1013.3
20260831215205 90 55 2.0 3.0 0.00 0.00 0.00 65 1013.4
20260831214702 90 221 5.0 7.0 0.00 0.00 0.00 65 1013.4
20260831214159 90 253 5.0 6.0 0.00 0.00 0.00 65 1013.4
20260831213654 89 325 4.0 6.0 0.00 0.00 0.00 64 1013.4
20260831213150 90 238 8.0 8.0 0.00 0.00 0.00 64 1013.3
20260831212646 91 263 6.0 9.0 0.00 0.00 0.00 63 1013.3
20260831212143 91 310 7.0 8.0 0.00 0.00 0.00 62 1013.3
20260831211641 91 275 5.0 7.0 0.00 0.00 0.00 63 1013.2
20260831211141 91 236 6.0 8.0 0.00 0.00 0.00 63 1013.3
20260831210636 92 240 6.0 8.0 0.00 0.00 0.00 61 1013.3
20260831210132 90 206 5.0 6.0 0.00 0.00 0.00 63 1013.1
20260831205631 89 184 4.0 6.0 0.00 0.00 0.00 64 1013.5
20260831205127 90 255 5.0 7.0 0.00 0.00 0.00 63 1013.5
20260831204627 90 241 7.0 8.0 0.00 0.00 0.00 62 1013.5
20260831204126 91 336 5.0 6.0 0.00 0.00 0.00 62 1013.4
20260831203620 91 204 6.0 7.0 0.00 0.00 0.00 60 1013.3
20260831203120 91 230 4.0 4.0 0.00 0.00 0.00 60 1013.3
20260831202619 91 221 3.0 3.0 0.00 0.00 0.00 61 1013.3
20260831202119 91 270 4.0 7.0 0.00 0.00 0.00 61 1013.2
20260831201618 91 291 2.0 3.0 0.00 0.00 0.00 60 1013.5
20260831201114 91 240 6.0 8.0 0.00 0.00 0.00 61 1013.5
20260831200610 90 261 5.0 6.0 0.00 0.00 0.00 61 1013.4
20260831200109 91 280 4.0 6.0 0.00 0.00 0.00 59 1013.4
20260831195605 91 222 6.0 7.0 0.00 0.00 0.00 58 1013.3
20260831195100 90 246 5.0 6.0 0.00 0.00 0.00 61 1013.6
20260831194555 91 297 3.0 3.0 0.00 0.00 0.00 59 1013.5
20260831194049 91 348 4.0 4.0 0.00 0.00 0.00 60 1013.4
20260831193546 90 321 1.0 1.0 0.00 0.00 0.00 59 1013.6
20260831193045 89 270 4.0 4.0 0.00 0.00 0.00 62 1013.5
20260831192540 90 287 4.0 4.0 0.00 0.00 0.00 61 1013.3
20260831192035 90 257 5.0 7.0 0.00 0.00 0.00 61 1013.4
20260831191531 90 265 2.0 3.0 0.00 0.00 0.00 60 1013.3
20260831191027 89 237 4.0 4.0 0.00 0.00 0.00 60 1013.5
20260831190522 89 347 4.0 6.0 0.00 0.00 0.00 61 1013.2
20260831190021 90 285 8.0 10.0 0.00 0.00 0.00 61 1013.3
20260831185517 90 260 2.0 3.0 0.00 0.00 0.00 60 1013.3
20260831185012 89 266 4.0 4.0 0.00 0.00 0.00 61 1013.3
20260831184507 88 247 6.0 7.0 0.00 0.00 0.00 63 1013.3
20260831184002 89 329 3.0 3.0 0.00 0.00 0.00 61 1013.5
20260831183501 89 327 4.0 6.0 0.00 0.00 0.00 60 1013.5
20260831183001 89 313 3.0 3.0 0.00 0.00 0.00 61 1013.4
20260831182456 89 264 6.0 7.0 0.00 0.00 0.00 59 1013.5
20260831181951 87 294 2.0 3.0 0.00 0.00 0.00 62 1013.6
20260831181446 88 262 7.0 8.0 0.00 0.00 0.00 62 1013.6
20260831180941 88 276 6.0 6.0 0.00 0.00 0.00 62 1013.9
20260831180435 87 263 4.0 7.0 0.00 0.00 0.00 61 1014.1
20260831175934 87 341 4.0 4.0 0.00 0.00 0.00 62 1014.2
20260831175431 87 330 2.0 3.0 0.00 0.00 0.00 63 1013.7
20260831174926 88 295 3.0 3.0 0.00 0.00 0.00 60 1014.0
20260831174422 87 312 2.0 3.0 0.00 0.00 0.00 63 1014.0
20260831173921 86 285 5.0 6.0 0.00 0.00 0.00 64 1013.6
20260831173420 86 269 5.0 6.0 0.00 0.00 0.00 64 1013.7
20260831172916 86 269 3.0 3.0 0.00 0.00 0.00 63 1013.6
20260831172412 86 267 3.0 3.0 0.00 0.00 0.00 62 1013.7
20260831171911 87 254 4.0 6.0 0.00 0.00 0.00 60 1013.6
20260831171408 88 306 4.0 4.0 0.00 0.00 0.00 60 1013.9
20260831170904 87 242 2.0 3.0 0.00 0.00 0.00 61 1014.0
20260831170400 86 293 3.0 3.0 0.00 0.00 0.00 64 1014.0
20260831165856 85 210 3.0 4.0 0.00 0.00 0.00 64 1014.1
20260831165352 86 305 6.0 8.0 0.00 0.00 0.00 64 1014.0
20260831164848 85 347 4.0 7.0 0.00 0.00 0.00 64 1014.3
20260831164344 86 242 5.0 8.0 0.00 0.00 0.00 63 1014.2
20260831163840 85 272 6.0 8.0 0.00 0.00 0.00 65 1014.3
20260831163335 85 252 3.0 6.0 0.00 0.00 0.00 64 1014.1
20260831162833 85 312 4.0 6.0 0.00 0.00 0.00 65 1014.1
20260831162329 85 252 5.0 7.0 0.00 0.00 0.00 66 1014.2
20260831161828 85 277 4.0 4.0 0.00 0.00 0.00 66 1014.0
20260831161324 84 283 4.0 4.0 0.00 0.00 0.00 66 1014.0
20260831160819 84 256 3.0 3.0 0.00 0.00 0.00 65 1014.1
20260831160314 84 341 3.0 4.0 0.00 0.00 0.00 66 1014.1
20260831155814 84 259 4.0 4.0 0.00 0.00 0.00 66 1014.0
20260831155309 84 336 1.0 1.0 0.00 0.00 0.00 66 1014.1
20260831154805 83 275 4.0 6.0 0.00 0.00 0.00 66 1013.9
20260831154301 83 302 6.0 7.0 0.00 0.00 0.00 66 1013.6
20260831153759 83 274 7.0 9.0 0.00 0.00 0.00 66 1013.7
20260831153255 83 189 5.0 8.0 0.00 0.00 0.00 67 1013.7
20260831152751 84 202 9.0 10.0 0.00 0.00 0.00 66 1014.0
20260831152247 84 277 4.0 6.0 0.00 0.00 0.00 65 1013.6
20260831151741 84 224 8.0 10.0 0.00 0.00 0.00 65 1013.4
20260831151241 84 238 8.0 10.0 0.00 0.00 0.00 65 1013.3
20260831150736 84 281 6.0 6.0 0.00 0.00 0.00 65 1013.3
20260831150231 83 246 9.0 10.0 0.00 0.00 0.00 66 1013.2
20260831145730 83 252 8.0 10.0 0.00 0.00 0.00 66 1013.1
20260831145227 83 277 8.0 13.0 0.00 0.00 0.00 66 1013.1
20260831144722 83 207 6.0 9.0 0.00 0.00 0.00 66 1013.1
20260831144219 83 270 4.0 4.0 0.00 0.00 0.00 66 1013.1
20260831143717 82 281 5.0 6.0 0.00 0.00 0.00 67 1013.1
20260831143213 82 309 8.0 11.0 0.00 0.00 0.00 68 1013.0
20260831142709 82 264 7.0 9.0 0.00 0.00 0.00 69 1013.1
20260831142204 82 243 6.0 8.0 0.00 0.00 0.00 68 1013.0
20260831141703 81 285 4.0 6.0 0.00 0.00 0.00 70 1013.1
20260831141158 81 261 4.0 6.0 0.00 0.00 0.00 70 1012.8
20260831140658 80 213 7.0 10.0 0.00 0.00 0.00 70 1012.7
20260831140153 80 273 8.0 9.0 0.00 0.00 0.00 71 1013.1
20260831135650 79 230 4.0 7.0 0.00 0.00 0.00 72 1013.0
20260831135146 79 263 5.0 7.0 0.00 0.00 0.00 73 1012.9
20260831134642 79 242 8.0 10.0 0.00 0.00 0.00 73 1012.8
20260831134138 79 336 5.0 7.0 0.00 0.00 0.00 73 1012.8
20260831133636 78 220 6.0 7.0 0.00 0.00 0.00 74 1013.0
20260831133131 78 265 3.0 4.0 0.00 0.00 0.00 74 1013.0
20260831132627 78 242 5.0 7.0 0.00 0.00 0.00 74 1013.0
20260831132126 77 224 4.0 4.0 0.00 0.00 0.00 75 1013.1
20260831131621 77 273 5.0 6.0 0.00 0.00 0.00 76 1013.0
20260831131118 77 245 2.0 2.0 0.00 0.00 0.00 75 1012.6
20260831130613 77 256 6.0 7.0 0.00 0.00 0.00 75 1012.9
20260831130109 77 255 5.0 7.0 0.00 0.00 0.00 75 1012.8
20260831125606 77 252 3.0 4.0 0.00 0.00 0.00 75 1012.8
20260831125102 77 257 4.0 4.0 0.00 0.00 0.00 76 1012.9
20260831124559 76 328 2.0 2.0 0.00 0.00 0.00 76 1012.9
20260831124054 76 268 3.0 3.0 0.00 0.00 0.00 76 1012.7
20260831123553 76 313 3.0 4.0 0.00 0.00 0.00 77 1012.8
20260831123048 75 246 3.0 3.0 0.00 0.00 0.00 77 1012.8
20260831122548 75 260 2.0 3.0 0.00 0.00 0.00 77 1012.6
20260831122044 75 320 2.0 2.0 0.00 0.00 0.00 78 1012.7
20260831121538 75 335 1.0 2.0 0.00 0.00 0.00 78 1012.6
20260831121034 75 238 3.0 3.0 0.00 0.00 0.00 78 1012.7
20260831120533 75 308 1.0 2.0 0.00 0.00 0.00 79 1012.5
20260831120029 74 341 0.0 1.0 0.00 0.00 0.00 79 1012.5
20260831115525 74 260 2.0 3.0 0.00 0.00 0.00 78 1012.3
20260831115021 74 338 2.0 2.0 0.00 0.00 0.00 79 1012.4